Snowfall_Accumulation
0.2 1.1 0.5 0.0 0.0 0.0 0.0 0.0 0.0 0.1 0.0 0.0 0.0 0.0 0.0 0.1 0.0 0.0 0.0 0.0 0.0 0.0 0.0 0.0 0.0 0.0 0.0
0.8 0.6 0.3 0.0 0.0 0.0 0.0 0.2 0.1 0.0 0.0 0.0 0.0 0.0 0.0 0.0 0.0 0.3 0.1 0.0 0.0 0.0 0.0 0.0 0.0 0.0 0.0
0.5 0.0 0.2 1.0 0.1 0.0 0.0 0.0 0.0 0.0 0.0 0.0 0.0 0.0 0.0 0.1 0.2 0.3 0.5 0.6 0.4 0.0 0.0 0.0 0.0 0.0 0.0
0.9 0.8 0.5 0.1 0.3 0.0 0.0 0.0 0.0 0.0 0.0 0.0 0.0 0.0 0.0 0.0 0.0 0.0 0.0 0.0 0.0 0.0 0.1 0.0 0.1 0.0 0.0
2.7 2.5 0.1 0.0 0.0 0.0 0.0 0.0 0.3 0.0 0.0 0.0 0.0 0.0 0.0 0.0 0.0 0.0 0.0 0.0 0.1 0.4 0.2 0.5 0.8 0.1 0.0
3.1 0.7 0.0 0.1 0.0 0.3 2.2 2.2 1.6 0.0 0.0 0.1 0.0 0.0 0.0 0.0 0.0 0.1 0.2 0.1 0.0 0.2 0.5 0.7 0.5 0.4 0.0
0.5 0.3 0.4 0.1 3.3 4.0 1.9 2.1 1.1 0.0 0.3 0.2 0.1 0.0 0.0 0.0 0.0 0.0 0.0 0.1 0.2 0.4 0.6 0.8 0.6 0.5 0.2
0.1 0.5 1.6 1.7 1.7 1.4 1.2 1.2 0.6 0.0 0.0 2.1 0.1 0.1 0.0 0.0 0.0 0.0 0.0 0.1 0.5 1.1 0.6 0.4 0.5 0.6 0.4
0.7 0.5 0.1 0.0 0.0 1.9 3.3 3.4 2.1 0.1 0.0 1.4 0.6 0.3 0.1 0.0 0.0 0.0 0.0 0.8 0.3 0.3 0.6 0.7 0.8 0.7 0.8
0.0 0.0 0.0 0.0 0.1 0.4 4.7 9.6 4.8 2.7 0.0 3.6 1.1 1.2 4.0 0.0 0.1 0.0 0.0 0.0 0.0 0.3 0.3 0.8 0.9 1.2 1.6
0.0 0.0 0.0 0.0 0.3 0.2 2.0 8.7 11.4 7.0 0.0 8.2 8.3 2.3 6.6 3.4 2.1 2.5 1.9 1.8 2.0 2.5 4.0 2.7 2.8 2.9 4.7
0.1 0.2 0.2 0.2 0.2 0.3 0.5 1.8 3.7 7.4 3.2 4.4 14.1 5.4 9.2 6.9 4.3 4.7 4.3 5.7 8.2 8.2 10.1 4.2 2.6 2.3 2.8
0.9 0.4 0.1 0.1 0.4 0.5 0.8 1.3 1.7 2.5 3.3 3.8 8.0 7.8 9.9 9.3 6.1 4.0 6.3 6.1 7.8 9.4 8.2 8.5 6.7 4.7 3.2
1.9 0.6 0.1 0.4 0.7 1.1 3.6 2.8 4.1 2.6 3.2 4.2 5.7 7.6 8.4 5.2 6.5 5.5 5.3 8.9 8.5 9.1 8.1 10.4 3.7 2.6 1.3
1.8 1.6 0.6 0.5 1.0 1.6 4.3 5.8 7.0 5.0 4.5 3.9 3.1 3.0 3.9 4.7 5.4 4.1 5.0 6.2 10.0 10.1 8.5 10.4 7.8 2.0 0.6
1.7 1.5 2.8 2.6 2.9 3.0 4.7 6.6 6.8 5.0 5.3 4.5 3.3 2.6 2.7 2.9 4.2 7.1 6.2 7.5 9.9 8.7 7.8 8.4 9.2 7.1 0.1
3.2 3.5 3.9 3.2 3.2 4.4 5.1 5.5 5.6 4.4 3.5 2.5 3.3 5.8 6.8 3.0 2.6 4.6 11.7 9.8 7.3 6.4 5.1 5.3 8.1 8.5 0.2